User: anonymous   Login
Location: Mactaquac Provincial Park
(45.9573°N, 66.8897°W)
Time: 21:16:19
(UTC-03:00)
Language:

Cosmos 1867 - Orbit

View from above orbital plane
View from above orbital plane
View from above satellite
View from above satellite

Ground track
Ground track

The orbit data is extracted from the following two-line orbital elements,

1 18187U 87060A   16210.88689458 -.00000001  00000-0  00000+0 0  9993
2 18187  65.0112  53.5885 0020577 264.5527  95.3692 14.31076661517730
Epoch (UTC): 28 July 2016 21:17:07
Eccentricity: 0.0020577
inclination: 65.0112°
perigee height: 773 km
apogee height: 803 km
right ascension of ascending node: 53.5885°
argument of perigee: 264.5527°
revolutions per day: 14.31076661
mean anomaly at epoch: 95.3692°
orbit number at epoch: 51773

The dashed part of the orbit path shows where the satellite is in the earth's shadow,  

DLR